THORAD DELTA 1 DEB, 42597

Orbit data source: Space-Track

THORAD DELTA 1 DEB, 42597 is space debris in SSO originally from a launch on Fri, 15 Nov 1974 UTC launched from the Air Force Western Test Range (AFWTR). Debris objects in space refer to the collection of defunct objects orbiting the Earth. Examples of debris include non-operational satellites, rocket bodies, and fragments generated from explosions, collisions, or faulty payload assembly.

Loading next visibility...
Identifier
42597, 1974-089FN
Orbit
SSO
Country
Flag of USUS
Related business
Manufacturer
Unknown
Mission
Spacecraft
Bus & Motor
Unknown
Mass
Unknown
Launch date (UTC)
1974-11-15 (51 years ago)
Launch vehicle
Unknown
Launch site
Air Force Western Test Range (AFWTR)
Object type
Payload
Rocket body
Debris
Shape & HBR
Unknown shape, 0.1 m
Radar Cross Section
Small (<0.1 m²)

Expand to show TLE details & history
Last TLE update: 3 days ago

TLE from 3 days ago
0 THORAD DELTA 1 DEB
1 42597U 74089FN  26127.71716535  .00000200  00000-0  11485-2 0  9991
2 42597 101.5484 116.0824 0193802 133.1190 228.6285 12.69660348577259
Epoch: 2026-05-07T17:12Z
TLE epoch observation values (Epoch: 2026-05-07T17:12:43.086Z)
Latitude
0.00002°
Longitude
-7.65643°
Altitude
1,486.978 km
Speed
7.074 km/s
True Right ascension
07h 44m 19s
True Declination
0° 00' 00"
Sunlit
Object was in daylight at epoch
Visualization orbit readout
Latitude
Unknown
Longitude
Unknown
Altitude
Unknown
Speed
Unknown
Apparent Right ascension
Unknown
Apparent Declination
Unknown
Sunlit
N/A
Visualization observer readout
Local Sidereal Time
19:34:53
Azimuth
Unknown
Elevation
Unknown
Doppler factor
Unknown
Orbital elements
Apogee altitude
1,531.202 km
Perigee altitude
1,230.461 km
Semi-major axis
7,758.969 km
Eccentricity
0.01938
Inclination
101.5484°
RAAN
116.0824°
Arg. of periapsis
133.119°
True anomaly
226.98842°
Mean anomaly
228.6285°
Eccentric anomaly
227.80583°
Mean motion
3.17568 °/min
Orbital period
113.36 mins
BSTAR
0.0011485
Loading maneuver chart data...
Computing Atmospheric mass density...

Documentation

Showing up to 5 results
|